Meteo Giornale » Osservazioni meteo Svizzera » Buochs

ore: 09:20 - Osservazioni Meteo Buochs
Lat. 46° 58' N Lon. 8° 23' E Alt. 450 metri s.l.m.

sereno

16 °C

Sereno

Temp. 24 Ore

13 °C

24 °C

Nord

3.7 Km/h

Dew point 13 °C

Umidità 82 %

Visibilità  10 Km

Il sole sorge alle ore 06:47

Il sole tramonta alle ore 20:05

Data e Ora Cielo e Fenomeni T °C DP °C Um. % Pres. hPa Vis. km Vento km/h
Oggi h: 09:20 sereno Sereno 16 13 82 1023 10 N 3.7
Oggi h: 08:50 sereno Sereno 16 13 82 1023 10 N 5.5
Oggi h: 08:20 sereno Sereno 15 12 82 1023 10 N 5.5
Oggi h: 07:50 sereno Sereno 14 12 87 1023 10 N 5.5
Oggi h: 07:20 sereno Sereno 13 11 87 1023 10 SO 7.4
Oggi h: 06:50 sereno Sereno 13 11 87 1022 10 N 5.5
Oggi h: 06:20 sereno Sereno 14 11 82 1022 10 SO 7.4
Oggi h: 05:50 sereno Sereno 13 11 87 1022 10 N 5.5
Oggi h: 05:20 sereno Sereno 14 11 82 1022 10 O/SO 7.4
Oggi h: 04:50 sereno Sereno 14 12 87 1022 10 N 5.5
Oggi h: 04:20 sereno Sereno 14 12 87 1022 10 N 5.5
Oggi h: 03:50 sereno Sereno 14 12 87 1022 10 N 5.5
Oggi h: 03:20 sereno Sereno 14 12 87 1022 10 N 5.5
Oggi h: 02:50 sereno Sereno 15 12 82 1022 10 O/SO 7.4
Oggi h: 02:20 sereno Sereno 16 12 77 1022 10 O 7.4
Oggi h: 01:50 sereno Sereno 15 12 82 1022 10 N 5.5
Oggi h: 01:20 sereno Sereno 17 12 72 1022 10 O 7.4
Oggi h: 00:50 sereno Sereno 16 12 77 1022 10 O/SO 7.4
Oggi h: 00:20 sereno Sereno 17 12 72 1023 10 O/SO 7.4
Ieri h: 23:50 sereno Sereno 17 12 72 1023 10 O 7.4
Ieri h: 23:20 sereno Sereno 17 12 72 1023 10 O 7.4
Ieri h: 22:50 sereno Sereno 18 12 67 1023 10 O 7.4
Ieri h: 22:20 sereno Sereno 18 13 72 1023 10 N 5.5
Ieri h: 21:50 sereno Sereno 18 13 72 1022 10 N 5.5
Ieri h: 21:20 poco_nuvoloso Poco Nuvoloso 19 13 68 1022 10 O 7.4
Ieri h: 20:50 sereno Sereno 19 13 68 1022 10 O 9.3
Ieri h: 20:20 poco_nuvoloso Poco Nuvoloso 20 13 64 1022 10 O 9.3
Ieri h: 19:50 sereno Sereno 21 14 64 1022 10 O 7.4
Ieri h: 19:20 poco_nuvoloso Poco Nuvoloso 22 13 56 1021 10 N 3.7
Ieri h: 18:50 sereno Sereno 23 13 53 1021 10 N 5.5
Ieri h: 18:20 sereno Sereno 23 13 53 1022 10 N 5.5
Ieri h: 17:50 sereno Sereno 24 11 43 1022 10 N 7.4
Ieri h: 17:20 sereno Sereno 24 11 43 1021 10 N 5.5
Ieri h: 16:50 poco_nuvoloso Poco Nuvoloso 24 11 43 1021 10 N 5.5
Ieri h: 16:20 poco_nuvoloso Poco Nuvoloso 24 12 47 1022 10 N 9.3
Ieri h: 15:50 poco_nuvoloso Poco Nuvoloso 24 11 43 1022 10 N 7.4
Ieri h: 15:20 poco_nuvoloso Poco Nuvoloso 24 12 47 1022 10 E 11.1
Ieri h: 14:50 poco_nuvoloso Poco Nuvoloso 24 13 50 1022 10 E/SE 9.3
Ieri h: 14:20 poco_nuvoloso Poco Nuvoloso 23 11 46 1022 10 N 7.4
Ieri h: 13:50 poco_nuvoloso Poco Nuvoloso 23 12 49 1022 10 N 7.4
Ieri h: 13:20 poco_nuvoloso Poco Nuvoloso 23 13 53 1023 10 SO 9.3
Ieri h: 12:50 sereno Sereno 23 12 49 1023 10 N 3.7
Ieri h: 12:20 sereno Sereno 22 13 56 1023 10 E 9.3
Ieri h: 11:50 poco_nuvoloso Poco Nuvoloso 22 12 53 1023 10 N 5.5
Ieri h: 11:20 poco_nuvoloso Poco Nuvoloso 21 13 60 1023 10 N 3.7
Ieri h: 10:50 poco_nuvoloso Poco Nuvoloso 20 12 59 1023 10 N 3.7
Ieri h: 10:20 poco_nuvoloso Poco Nuvoloso 19 11 59 1023 10 N 1.8
Ieri h: 09:50 poco_nuvoloso Poco Nuvoloso 19 12 63 1023 10 N 3.7